Location: Marse
(42.1502°N, 110.9866°W)
Time: 04:11:31
(UTC+00:00)

Oscar 19 - Pass Details

Date: 10 July 2022
Orbit: 773 x 790 km, 98.8° (Epoch: 07 August)

Event Time Altitude Azimuth Distance (km) Brightness Sun altitude
Rises 10:37:18 0° 18° (NNE) 3,258 15.1 -12.4°
Reaches altitude 10° 10:39:41 10° 23° (NNE) 2,327 14.3 -12.1°
Maximum altitude 10:44:41 53° 100° (E) 943 11.3 -11.4°
Drops below altitude 10° 10:49:41 10° 178° (S) 2,316 12.7 -10.8°
Enters shadow 10:51:15 - 182° (S) 2,933 13.2 -10.6°
